Flag for Greenland Weather past 2 weeks in Nuuk, Greenland

Now
52 °F

Passing clouds.


Feels Like: 51 °F
Forecast: 45 / 54 °F
Wind: 5 mph from North

Location: Godthaab / Nuuk

Current Time: Jul 4, 2015 at 8:17:39 AM

Latest Report: Jul 4, 2015 at 7:50 AM


Visibility: N/A

Pressure: 30.15 "Hg

Humidity: 62%

Dew point: 39 °F

Location of NuukLocation

Historic Weather in Nuuk — Graph

°F

Nuuk temperature yesterday

Maximum temperature yesterday: 55 °F (at 10:50 AM)
Minimum temperature yesterday: 46 °F (at 4:50 AM)
Average temperature yesterday: 51 °F

Past Weeks' High & Low Weather Summary

 TemperatureHumidityPressure
High63 °F (Jul 1, 4:50 PM)100% (Jun 19, 9:50 AM)30.21 "Hg (Jun 19, 9:50 AM)
Low32 °F (Jun 19, 6:50 AM)31% (Jun 28, 5:50 PM)29.65 "Hg (Jun 19, 2:50 PM)
Average49 °F66%30.01 "Hg
* Reported Jun 19 6:50 AM — Jul 4 6:50 AM, Nuuk, Weather by CustomWeather, © 2015

Note: Actual official high and low records may vary slightly from our data, if they occured in-between our weather recording intervals... More about our weather records

Advertising

Nuuk weather history for previous 24 hours

 ConditionsComfort  
Time TempWeatherWind HumidityBarometerVisibility
6:50 AM
Sat, Jul 4
50 °FPassing clouds.10 mph67%30.18 "HgN/A
5:50 AM50 °FCool.5 mph62%30.18 "HgN/A
4:50 AM50 °FPassing clouds.7 mph62%30.18 "HgN/A
3:50 AM50 °FCool.8 mph62%30.18 "HgN/A
2:50 AM50 °FPassing clouds.2 mph67%30.18 "HgN/A
1:50 AM52 °FCool.6 mph58%30.18 "HgN/A
12:50 AM52 °FPartly sunny.6 mph62%30.18 "HgN/A
11:50 PM
Fri, Jul 3
52 °FPartly sunny.2 mph62%30.21 "HgN/A
10:50 PM48 °FPartly sunny.3 mph71%30.21 "HgN/A
9:50 PM50 °FScattered clouds.1 mph67%30.21 "HgN/A
8:50 PM52 °FPassing clouds.3 mph62%30.18 "HgN/A
7:50 PM52 °FCool.3 mph58%30.18 "HgN/A
6:50 PM52 °FCool.7 mph62%30.18 "HgN/A
4:50 PM52 °FScattered clouds.10 mph58%30.18 "HgN/A
3:50 PM54 °FScattered clouds.9 mph58%30.18 "HgN/A
2:50 PM54 °FScattered clouds.10 mph58%30.18 "HgN/A
1:50 PM52 °FPassing clouds.10 mph62%30.18 "HgN/A
12:50 PM55 °FScattered clouds.8 mph59%30.18 "HgN/A
11:50 AM55 °FScattered clouds.8 mph59%30.18 "HgN/A
10:50 AM55 °FScattered clouds.3 mph63%30.15 "HgN/A
9:50 AM54 °FScattered clouds.3 mph63%30.15 "HgN/A
8:50 AM54 °FScattered clouds.No wind63%30.15 "HgN/A
Weather by CustomWeather, © 2015

See weather overviewHow to use our weather pages